Home > Time Zones > World Clock > Weather > U.S.A. > Erie > Past weeks

Flag for U.S.A. Weather past 2 weeks in Erie, Pennsylvania, U.S.A.

Now
71 °F

Sunny.


Feels Like: 76 °F
Forecast: 71 / 78 °F
Wind: 10 mph from Southwest

Location: Erie International Airport

Current Time: Aug 3, 2015 at 9:35:11 AM

Latest Report: Aug 3, 2015 at 8:51 AM


Visibility: 10 mi

Pressure: 29.76 "Hg

Humidity: 61%

Dew point: 57 °F

Location of ErieLocation

Historic Weather in Erie — Graph

°F

Erie temperature yesterday

Maximum temperature yesterday: 88 °F (at 3:51 PM)
Minimum temperature yesterday: 65 °F (at 4:51 AM)
Average temperature yesterday: 77 °F

Past Weeks' High & Low Weather Summary

 TemperatureHumidityPressure
High88 °F (Jul 28, 3:51 PM)90% (Jul 20, 6:51 AM)30.04 "Hg (Jul 20, 6:51 AM)
Low58 °F (Jul 23, 3:51 AM)34% (Aug 2, 3:51 PM)29.67 "Hg (Jul 21, 3:51 AM)
Average75 °F61%29.90 "Hg
* Reported Jul 19 7:51 AM — Aug 3 7:51 AM, Erie, Weather by CustomWeather, © 2015

Note: Actual official high and low records may vary slightly from our data, if they occured in-between our weather recording intervals... More about our weather records

Advertising

Erie weather history for previous 24 hours

 ConditionsComfort  
Time TempWeatherWind HumidityBarometerVisibility
7:51 AM
Mon, Aug 3
69 °FScattered clouds.9 mph63%29.73 "Hg10 mi
6:51 AM67 °FPassing clouds.22 mph68%29.68 "Hg10 mi
5:51 AM67 °FClear.15 mph71%29.72 "Hg10 mi
4:51 AM66 °FOvercast.10 mph75%29.73 "Hg10 mi
3:51 AM66 °FOvercast.9 mph78%29.78 "Hg10 mi
2:51 AM68 °FPartly cloudy.No wind70%29.79 "Hg10 mi
1:51 AM69 °FPartly cloudy.7 mph73%29.79 "Hg10 mi
12:51 AM78 °FPassing clouds.9 mph56%29.71 "Hg10 mi
11:51 PM
Sun, Aug 2
80 °FLight rain. Clear.30 mph51%29.68 "Hg10 mi
10:51 PM80 °FLight rain. Clear.21 mph52%29.69 "Hg10 mi
9:51 PM81 °FClear.21 mph53%29.72 "Hg10 mi
8:51 PM82 °FSunny.14 mph51%29.74 "Hg10 mi
7:51 PM84 °FSunny.14 mph48%29.75 "Hg10 mi
6:51 PM86 °FSunny.17 mph43%29.73 "Hg10 mi
5:51 PM87 °FSunny.8 mph42%29.78 "Hg10 mi
4:51 PM85 °FSunny.13 mph45%29.80 "Hg10 mi
3:51 PM88 °FSunny.9 mph34%29.80 "Hg10 mi
2:51 PM86 °FSunny.10 mph43%29.83 "Hg10 mi
1:51 PM83 °FSunny.5 mph46%29.85 "Hg10 mi
12:51 PM84 °FSunny.8 mph35%29.87 "Hg10 mi
11:51 AM81 °FSunny.10 mph42%29.87 "Hg10 mi
10:51 AM79 °FSunny.9 mph48%29.89 "Hg10 mi
9:51 AM76 °FSunny.8 mph56%29.90 "Hg10 mi
Weather by CustomWeather, © 2015

See weather overviewHow to use our weather pages